SCP
0 0 0 0 0 0 0 0 0 0 0 0 0 0 0 0 0 0 0 0 0 0 0 0 0 0 0 0 0 0 0 0 0 0 0 0 0 0 0 0 0 0 0 0 0 0 0 0 0 0 0 0 0 0
0 0 0 0 0 0 0 0 0 0 0 0 0 0 0 0 0 0 0 0 0 0 0 0 0 0 0 0 0 0 0 0 0 0 0 -0 0 0 0 0 0 0 0 -0 0 0 0 0 0 0 0 0 0 -0
0 0 0 0 0 0 0 0 0 0 0 0 0 0 0 0 0 0 0 0 0 0 0 0 0 0 0 0 0 0 0 0 0 0 0 -0 0 0 0 0 0 0 -0 0 0 0 0 0 0 0 0 0 0 -0
0 0 0 0 0 0 0 0 0 0 0 0 0 0 0 0 0 0 0 0 0 0 0 0 0 0 0 0 0 -0 0 0 0 0 0 0 0 0 0 0 0 0 0 0 0 0 0 0 0 0 0 0 -0 -0
0 0 0 0 0 0 0 0 0 0 0 0 0 0 0 0 0 0 0 0 0 0 0 0 0 0 0 0 -0 -0 -0 0 0 0 0 0 0 0 0 0 0 0 0 0 0 0 0 0 0 0 0 -0 -0 -0
0 0 0 0 0 0 0 0 0 0 0 0 0 0 0 0 0 0 0 0 0 0 0 0 0 0 0 -0 -0 -0 -0 0 0 0 0 0 0 0 0 0 0 0 0 0 0 0 0 0 0 0 -0 -0 -0 -0
0 0 0 0 0 0 0 0 0 0 0 0 0 0 0 0 0 0 0 0 0 0 0 0 0 0 0 0 -0 0 0 0 0 0 0 0 0 0 0 0 0 0 0 0 0 0 0 0 0 -0 -0 -0 -0 -0
0 0 0 0 0 0 0 0 0 0 0 0 0 0 0 0 0 0 0 0 0 0 0 0 0 0 0 0 0 0 0 0 0 0 0 0 0 0 0 0 0 0 0 0 0 0 0 -0 -0 -0 0 -0 0 0
0 0 0 0 0 0 0 0 0 0 0 0 0 0 0 0 0 0 0 0 0 0 0 0 0 0 0 0 0 0 0 0 0 0 0 0 0 0 0 0 0 0 0 0 0 0 0 -0 -0 -0 0 0 0 0
0 0 0 0 0 0 0 0 0 0 0 0 0 0 0 0 0 0 0 0 0 0 0 0 0 0 0 0 0 0 0 0 0 -0 0 0 0 0 -0 0 0 0 0 0 0 0 0 -0 -0 0 0 0 0 0
0 0 0 0 0 0 0 0 0 0 0 0 0 0 0 0 0 0 0 0 0 0 0 0 0 0 0 0 0 0 0 0 0 -0 -0 -0 -0 -0 -0 -0 0 0 0 0 0 -0 0 0 0 0 0 0 0 0
0 0 0 0 0 0 0 0 0 0 0 0 0 0 0 0 0 0 0 0 0 0 0 0 0 0 0 0 0 0 -0 0 0 0 -0 -0 0 -0 -0 -0 0 0 0 0 0 -0 -0 0 0 0 0 0 0 0
0 0 0 0 0 0 0 0 0 0 0 0 0 0 0 0 0 0 0 0 0 0 0 0 0 0 0 0 -0 -0 -0 0 -0 0 0 0 -0 -0 -0 -0 0 0 0 0 0 0 -0 0 0 0 0 0 0 0
0 0 0 0 0 0 0 0 0 0 0 0 0 0 0 0 0 0 0 0 0 0 0 0 0 0 -0 -0 -0 -0 0 0 0 0 0 -0 -0 -0 -0 -0 0 0 0 0 0 -0 -0 0 0 0 0 0 0 0
0 0 0 0 0 0 0 0 0 0 0 0 0 0 0 0 0 0 0 0 0 0 0 0 -0 -0 -0 -0 -0 -0 0 0 0 0 0 -0 -0 -0 -0 -0 -0 0 0 0 0 0 -0 -0 0 0 0 0 0 0
0 0 0 0 0 0 0 0 0 0 0 0 0 0 0 0 0 0 0 0 0 0 0 -0 -0 -0 -0 -0 -0 0 0 0 -0 0 -0 -0 -0 -0 -0 -0 -0 0 -0 0 0 0 -0 -0 -0 0 0 0 0 0
0 0 -0 0 0 0 0 0 0 0 0 0 0 0 0 0 0 0 0 0 0 0 0 -0 -0 -0 -0 -0 -0 0 0 0 0 0 -0 -0 -0 -0 -0 -0 -0 -0 0 0 0 0 0 -0 -0 -0 0 0 0 0
0 0 0 0 0 0 0 0 0 0 0 0 0 0 0 0 0 0 0 0 0 0 0 -0 -0 -0 -0 -0 0 0 0 0 0 0 0 -0 -0 -0 -0 -0 -0 -0 -0 -0 -0 -0 0 0 -0 -0 -0 0 0 0
0 0 0 0 0 0 0 0 0 0 0 0 0 0 0 0 0 0 0 0 0 0 0 0 0 -0 -0 -0 -0 0 0 0 0 0 0 -0 -0 -0 -0 -0 -0 -0 -0 0 0 0 0 0 -0 -0 -0 -0 0 0
0 0 0 0 0 0 0 0 0 0 0 0 0 0 0 0 0 -0 0 0 0 0 0 0 0 -0 -0 0 0 0 0 0 0 0 0 0 0 -0 -0 -0 -0 -0 -0 -0 0 0 0 -0 -0 -0 -0 -0 -0 -0
0 0 0 0 0 0 0 0 0 0 0 0 0 0 0 0 0 0 0 0 0 0 0 0 0 0 0 0 0 0 0 0 0 0 0 0 0 0 0 0 -0 -0 -0 -0 -0 -0 -0 -0 -0 -0 -0 -0 -0 -0
0 0 0 0 0 0 0 0 0 0 0 0 0 0 0 0 0 0 0 0 0 0 0 0 0 0 0 0 0 -0 0 0 0 0 0 0 0 0 0 0 -0 -0 -0 -0 -0 -0 -0 0 -0 0 0 -0 -0 -0
0 0 0 0 0 0 0 0 0 0 0 0 0 0 0 0 0 0 0 0 -0 -0 0 0 0 0 0 0 0 -0 -0 0 0 0 0 0 0 0 0 0 0 0 -0 -0 -0 -0 -0 -0 0 0 -0 0 -0 -0
0 0 0 0 0 0 0 0 0 0 0 0 0 0 0 0 0 0 0 0 0 0 0 0 0 0 0 0 0 0 -0 -0 -0 0 -0 0 0 0 0 0 0 0 0 0 -0 -0 -0 -0 -0 0 -0 0 0 0
0 0 0 0 0 0 0 0 0 0 0 0 0 0 0 0 0 0 0 0 0 0 0 0 0 0 0 0 0 -0 -0 -0 -0 -0 -0 0 0 0 0 0 0 0 0 0 0 -0 0 -0 -0 -0 -0 0 -0 -0
0 0 0 0 0 0 0 0 0 0 0 0 0 0 0 0 0 0 0 0 0 0 0 0 0 0 0 0 0 0 0 -0 -0 -0 -0 -0 0 0 0 0 0 0 0 0 0 0 0 0 -0 -0 -0 0 -0 -0
0 0 0 0 0 0 0 0 0 0 0 0 0 0 0 0 0 0 0 0 0 0 0 0 0 0 0 0 0 -0 -0 -0 -0 -0 -0 -0 -0 -0 0 0 0 0 0 0 0 0 0 0 0 0 -0 0 0 0
0 0 0 0 0 0 0 0 0 0 0 0 0 0 0 0 0 0 0 0 0 0 0 0 0 0 0 0 0 0 0 0 -0 0 -0 -0 -0 -0 -0 -0 -0 0 0 0 0 0 0 0 0 0 0 0 0 0
0 0 0 0 0 0 0 0 0 0 0 0 0 0 0 0 0 0 0 0 0 0 0 0 0 0 0 0 0 0 0 -0 -0 0 0 0 0 0 0 0 0 0 0 0 0 0 0 0 0 0 0 0 0 0
0 0 0 0 0 0 0 0 0 0 0 0 0 0 0 0 0 0 0 0 0 0 0 0 0 0 0 0 0 0 -0 -0 -0 -0 -0 -0 0 0 0 0 0 0 0 0 0 0 0 0 0 0 0 0 0 0
0 0 0 0 0 0 0 0 0 0 0 0 0 0 0 0 0 0 0 0 0 0 0 0 0 0 0 0 0 0 0 0 0 0 -0 -0 -0 -0 -0 -0 0 0 -0 -0 -0 0 0 0 0 0 0 0 0 0
0 0 0 0 0 0 0 0 0 0 0 0 0 0 0 0 0 0 0 0 0 0 0 0 0 0 0 0 0 0 0 0 0 -0 0 -0 -0 0 0 -0 -0 -0 -0 0 0 0 0 0 0 0 0 0 0 0
0 0 0 0 0 0 0 0 0 0 0 0 0 0 0 0 0 0 0 0 0 0 0 0 0 0 0 0 0 0 0 0 0 0 0 0 -0 0 0 0 0 0 0 0 0 0 0 0 0 0 0 0 0 0
Wind_Speed_500mb
50 45 43 42 40 39 37 36 33 34 38 41 42 41 41 39 32 23 12 12 12 16 56 47 27 16 20 13 7 10 16 6 9 6 5 4 3 5 6 7 7 5 6 7 5 6 14 8 2 5 17 48 46 47
52 46 46 41 41 41 38 37 33 32 35 40 41 41 40 36 34 26 24 16 29 28 54 75 74 74 70 49 38 14 10 10 9 5 5 5 6 6 2 6 8 5 3 4 11 12 12 14 23 56 54 38 50 60
53 46 45 40 40 41 38 35 35 30 33 40 41 42 41 35 32 26 32 30 28 23 43 18 13 4 41 32 22 21 14 19 13 13 5 4 7 4 4 6 6 8 10 7 7 9 11 34 61 36 51 48 60 67
55 49 45 42 37 40 40 35 35 31 31 39 42 42 40 36 34 35 30 25 20 15 11 19 36 23 7 12 29 24 28 19 15 10 7 4 4 8 6 10 11 18 8 10 12 22 30 39 30 62 60 60 75 69
66 57 47 42 35 38 41 36 38 26 33 38 40 40 38 33 33 29 7 10 8 8 8 30 35 21 38 21 14 38 46 45 16 7 6 5 8 6 7 6 7 10 12 9 16 27 39 33 48 53 58 59 77 63
66 65 58 43 35 35 37 37 36 27 33 36 37 37 34 28 28 19 4 10 9 8 11 9 25 21 35 34 12 14 37 41 27 10 8 9 12 7 5 6 12 26 42 42 24 45 51 54 46 70 55 76 63 57
71 72 67 52 37 35 37 35 34 28 32 34 34 36 29 21 24 10 0 2 7 11 8 11 14 16 29 26 12 1 20 20 16 10 11 9 11 12 5 7 9 55 45 52 49 31 33 36 58 74 68 47 49 50
68 65 63 57 58 42 36 34 33 29 30 32 33 32 23 23 21 2 2 6 11 13 7 5 9 19 20 14 11 3 11 20 15 9 6 6 6 9 8 19 37 47 49 47 30 29 42 51 74 54 46 39 46 47
70 58 55 54 44 35 31 33 27 27 30 29 26 14 2 5 3 2 14 7 10 7 4 3 6 8 25 16 12 7 6 4 7 4 6 6 3 7 14 34 48 59 29 41 30 33 36 58 52 47 41 46 42 47
64 53 47 46 32 29 30 25 23 25 25 18 5 4 5 6 6 14 2 3 4 4 4 6 7 7 11 8 8 7 4 3 5 8 9 5 3 26 44 55 56 34 25 35 28 35 50 60 46 47 42 43 34 33
64 66 61 47 34 28 28 25 21 20 16 4 6 8 7 7 6 5 4 5 5 3 8 11 14 10 12 6 6 7 5 4 4 2 3 1 3 38 80 78 51 23 25 28 20 38 46 46 49 46 46 38 35 33
71 67 51 43 40 31 29 24 16 13 7 4 1 6 9 7 5 3 5 6 5 5 7 9 13 15 15 11 7 6 5 3 4 5 4 6 11 70 82 75 58 19 16 25 25 37 47 43 48 41 40 39 35 32
54 50 45 43 41 32 27 19 13 8 3 5 4 3 2 6 3 4 3 5 5 6 9 15 9 10 9 10 8 4 6 4 15 6 6 5 51 78 81 68 27 14 24 26 24 33 48 46 54 46 41 39 32 33
45 44 44 41 30 29 26 15 12 7 7 6 5 2 7 5 5 4 6 6 8 12 28 36 15 8 6 4 2 5 6 6 4 9 9 17 64 83 84 69 54 23 28 20 23 33 48 50 54 50 50 45 41 36
42 39 40 30 29 27 20 15 12 15 10 6 5 5 7 2 4 2 1 4 14 23 31 18 4 5 5 5 4 6 4 8 7 5 9 52 73 76 77 85 51 14 29 22 21 26 43 49 50 44 42 36 36 35
42 35 40 29 29 25 19 17 18 12 7 5 8 2 5 6 7 5 6 10 21 25 21 4 5 5 6 7 8 11 7 6 7 11 51 60 71 78 77 81 56 11 22 23 20 15 28 40 39 38 38 40 39 42
44 40 36 32 30 25 24 25 15 8 7 6 8 12 9 6 5 1 3 12 20 12 3 2 6 0 3 6 7 5 4 10 38 48 53 56 68 74 79 79 69 36 22 16 20 11 20 34 35 47 47 40 45 49
44 43 31 38 34 31 32 13 9 8 10 14 6 7 11 10 7 4 8 13 10 6 6 5 6 10 7 5 7 8 29 35 41 46 52 57 54 62 70 68 62 42 30 20 17 13 16 28 39 45 44 39 42 47
43 35 37 41 41 21 12 14 8 6 13 6 9 15 12 17 15 9 11 7 7 9 11 9 8 5 3 4 12 29 36 40 49 56 50 41 44 54 54 57 58 46 32 27 19 14 15 21 31 35 40 38 43 47
35 38 45 47 34 9 8 7 11 7 7 6 12 26 14 12 11 15 13 17 12 10 12 6 5 4 2 9 21 35 36 36 40 44 42 46 47 51 49 50 50 48 31 28 24 12 17 18 23 24 29 34 37 41
47 47 41 44 23 6 7 8 11 9 7 8 29 22 15 16 8 8 11 13 14 8 7 7 8 5 10 18 18 37 29 30 29 31 37 45 46 47 44 43 45 48 46 36 31 20 13 13 17 17 16 25 31 36
47 42 38 37 9 9 7 11 6 7 9 11 24 18 12 9 9 6 9 16 8 8 9 9 6 7 12 14 25 33 25 23 24 29 29 33 43 48 48 45 42 46 45 40 31 25 12 4 10 11 15 15 16 21
47 35 24 11 8 16 6 14 9 9 5 8 17 11 6 8 13 15 10 6 7 10 11 7 5 4 7 12 23 30 27 18 23 29 41 41 36 35 37 36 36 38 42 36 32 23 12 8 6 3 8 11 8 10
41 16 11 13 12 10 8 10 11 9 8 5 7 8 7 13 23 6 5 10 16 14 11 7 3 0 4 11 24 36 30 24 19 24 27 37 40 40 38 35 31 33 39 36 29 25 14 4 13 13 10 4 3 6
11 14 10 9 13 9 8 7 6 4 6 7 7 5 6 14 5 4 8 18 32 17 14 10 6 3 7 10 20 32 32 26 20 21 29 28 34 39 42 42 36 36 37 35 33 31 22 10 4 15 13 16 8 3
6 13 13 18 10 10 10 9 11 10 6 7 7 15 9 7 5 6 8 36 35 26 20 16 10 9 7 10 19 31 36 32 18 19 26 29 34 36 40 44 52 45 42 38 39 39 32 23 10 4 12 27 25 18
6 10 11 14 9 7 5 5 11 8 8 8 8 6 6 6 8 7 20 28 29 26 23 17 11 7 3 7 13 21 28 30 25 22 26 25 28 32 38 41 46 46 40 35 37 37 33 32 25 18 22 15 35 35
11 7 8 11 11 11 4 6 7 8 7 12 20 6 13 12 6 18 19 25 24 31 20 14 12 15 10 5 8 16 21 25 22 16 8 20 28 37 39 43 46 46 44 39 34 33 35 35 33 26 20 29 28 40
8 9 14 4 9 8 12 11 10 10 12 22 9 5 9 8 21 26 37 36 32 28 22 17 18 21 17 8 5 15 22 28 34 36 37 41 44 46 47 48 49 49 52 48 43 39 35 28 30 32 27 26 21 26
8 21 12 10 8 9 8 10 13 18 16 25 25 30 27 33 40 35 35 34 28 22 23 20 21 17 10 3 5 13 20 26 34 39 43 42 45 44 43 45 48 49 50 52 51 47 43 31 19 23 28 30 27 25
8 24 16 5 5 10 16 12 25 33 26 20 34 47 37 31 36 32 33 28 21 19 20 20 19 15 11 5 3 9 14 19 26 32 37 36 35 36 38 40 42 44 46 49 50 49 48 45 38 27 18 22 32 37
17 19 17 8 1 32 39 11 11 14 16 19 17 25 31 17 11 16 28 23 21 17 20 21 17 10 5 7 9 10 16 20 26 33 39 38 34 34 34 35 36 37 39 41 42 44 46 45 43 41 33 24 17 27
22 20 26 22 17 13 14 16 10 10 11 8 11 26 15 11 9 12 24 18 16 22 23 19 14 10 9 10 12 14 19 25 32 36 38 36 33 31 30 31 33 33 34 35 36 37 39 43 43 41 37 33 26 13
Wind_Direction_500mb
259 264 269 274 283 291 300 306 313 320 326 335 334 336 335 336 337 331 330 278 306 274 288 277 270 251 241 213 227 313 345 356 335 20 314 339 328 325 345 294 282 230 177 225 240 244 279 162 108 261 294 298 309 307
257 261 267 273 280 286 296 305 308 310 325 333 331 331 329 333 331 321 311 293 293 281 271 290 284 273 272 270 258 245 238 342 283 30 354 350 330 341 46 291 328 304 203 265 195 228 234 204 268 297 291 303 312 304
253 257 263 269 276 281 291 301 300 305 325 330 328 326 325 331 327 315 307 309 314 297 307 315 341 264 311 295 248 215 242 210 225 238 224 269 272 187 262 254 281 274 279 245 304 280 280 302 308 307 305 310 321 301
241 253 258 264 270 278 286 298 299 302 322 325 324 323 323 330 328 320 307 304 283 270 289 291 324 345 305 342 215 234 246 200 229 217 229 240 265 216 249 249 255 252 304 249 260 280 310 300 303 321 302 308 318 305
234 238 247 259 266 275 283 293 292 305 314 320 320 321 322 332 327 331 2 341 289 238 291 295 331 359 6 355 281 245 243 225 214 200 199 229 241 246 244 252 245 208 218 260 285 294 294 289 312 329 310 310 311 308
233 237 236 241 258 271 281 289 292 299 308 315 317 316 318 329 322 353 198 40 31 293 320 312 317 337 11 4 337 265 232 218 216 203 220 230 241 206 260 258 261 296 305 295 284 295 292 301 314 323 310 310 311 309
234 235 237 231 246 271 281 286 286 296 306 313 313 308 313 311 306 325 51 126 332 6 285 290 304 307 336 328 344 12 208 207 224 235 226 235 236 196 254 259 306 302 306 307 306 306 301 311 319 317 310 309 314 311
236 235 237 241 238 251 276 278 283 295 309 312 306 302 308 287 281 181 153 334 274 243 270 294 281 317 347 315 314 242 208 213 225 235 239 214 202 217 260 258 273 287 301 307 317 313 311 316 315 320 325 331 323 323
233 236 237 240 223 246 260 269 282 303 312 309 304 316 339 158 127 12 328 48 146 213 282 275 297 301 333 318 289 272 202 256 244 234 232 179 204 234 257 295 300 296 305 300 309 323 317 327 326 334 338 333 331 328
228 230 235 228 222 243 251 265 284 303 307 314 294 199 173 193 198 314 120 198 181 230 238 254 266 280 305 290 290 307 223 261 266 223 170 213 263 287 328 341 327 329 302 316 317 334 337 333 342 343 338 339 338 326
222 229 227 232 223 237 245 262 278 302 314 295 205 187 183 243 231 212 190 207 173 249 236 246 242 279 287 245 277 261 272 251 272 240 250 215 28 345 338 335 334 303 318 316 343 358 348 334 339 342 341 347 340 339
228 232 225 226 215 232 246 254 276 291 300 293 207 149 163 186 201 194 193 151 207 231 233 231 278 269 284 259 271 302 284 249 275 157 235 43 336 338 336 340 344 318 342 318 353 2 359 347 353 357 351 347 350 349
232 235 220 216 208 235 243 244 265 261 267 152 135 157 168 175 77 204 43 328 326 227 251 266 284 276 279 255 279 315 265 310 324 2 42 46 334 337 338 330 338 328 349 322 357 4 7 8 3 6 3 4 10 12
223 213 211 204 218 229 233 229 232 212 171 170 157 342 186 203 211 173 178 204 291 266 299 300 270 241 272 288 252 283 339 28 61 23 8 336 333 333 338 348 0 359 327 333 349 3 9 16 17 11 12 12 16 23
214 200 201 205 217 222 212 208 202 179 169 166 189 215 211 151 151 134 92 5 357 334 324 321 345 310 313 290 7 326 350 39 38 24 322 327 330 334 338 343 355 7 339 331 339 4 11 15 18 16 22 25 35 43
190 198 200 205 208 198 187 179 164 164 169 194 225 236 223 108 13 57 69 344 341 337 328 38 47 47 357 350 27 11 23 24 340 332 319 324 331 336 337 350 353 354 328 330 317 349 15 22 23 24 32 39 49 54
186 199 199 196 182 172 173 157 163 179 193 215 233 219 244 255 231 269 347 334 333 332 337 33 59 229 294 40 24 35 35 321 312 314 321 328 332 336 344 353 359 15 9 354 349 340 13 24 30 30 31 37 48 55
189 196 188 181 164 164 161 164 167 185 228 224 210 167 158 129 136 62 355 332 326 3 14 65 57 42 38 30 333 341 320 317 318 319 321 326 336 348 351 355 6 25 36 22 32 30 20 22 32 35 34 43 53 55
190 185 176 158 163 143 155 181 181 222 225 202 196 157 131 116 97 56 354 350 64 106 98 62 70 64 34 3 316 329 328 326 326 329 336 344 351 346 354 356 15 36 35 37 28 19 26 29 36 41 38 46 55 53
177 177 155 164 157 132 145 165 188 223 216 174 142 146 137 123 110 55 52 73 102 62 60 55 75 91 342 338 337 336 334 332 333 330 340 359 0 353 354 1 16 29 47 47 42 36 22 30 35 45 49 51 55 56
163 153 164 171 175 162 175 184 191 208 188 151 143 134 128 131 96 57 45 40 63 48 87 98 102 24 346 337 324 345 350 351 353 349 346 344 359 1 359 2 12 25 33 42 50 46 24 31 32 41 61 62 63 64
149 154 157 165 178 191 229 204 202 179 176 145 160 146 143 147 142 96 95 53 74 89 114 123 64 20 7 1 357 3 2 8 13 12 9 7 6 8 9 5 1 8 19 22 35 41 43 26 21 48 61 77 72 64
147 153 147 166 177 194 233 182 195 188 143 178 146 118 133 132 146 136 80 90 121 138 138 117 49 15 26 1 358 3 9 9 8 11 6 9 9 11 14 12 6 2 359 13 18 37 57 166 208 254 27 59 81 88
147 151 176 185 190 196 192 191 187 179 174 138 137 114 143 130 155 93 125 155 163 152 165 162 138 61 45 24 17 10 8 12 19 23 2 358 5 9 18 20 13 0 358 357 0 10 42 161 197 230 265 268 25 38
161 189 187 198 195 187 191 156 168 139 171 162 143 128 156 144 106 136 170 169 165 170 167 160 163 123 51 29 18 15 14 10 15 12 357 6 5 8 17 17 23 13 354 347 353 357 6 26 217 236 232 232 250 222
194 197 181 191 183 187 192 160 177 172 157 153 181 134 133 99 112 197 200 173 172 181 172 164 140 98 73 40 15 12 13 14 11 1 5 3 2 8 10 9 4 11 8 353 342 337 337 341 316 212 231 230 237 240
210 219 202 208 205 212 188 141 144 129 169 173 154 116 109 135 190 183 162 170 178 173 169 171 184 176 101 60 30 20 15 13 11 9 13 13 15 13 11 14 4 0 1 353 341 333 322 310 310 264 244 230 220 230
230 212 196 183 205 220 170 162 141 168 187 162 132 136 152 165 162 163 171 165 165 154 160 170 174 169 150 121 33 9 6 14 15 14 22 32 22 18 14 12 11 7 7 5 353 341 326 307 298 292 266 238 229 222
220 202 187 236 206 215 212 197 188 175 162 160 108 115 124 102 142 154 151 150 151 161 164 166 150 169 171 151 19 358 1 5 12 17 14 10 8 11 8 5 4 4 6 6 8 359 348 329 293 282 275 260 238 209
231 190 186 214 192 205 211 198 168 155 141 148 129 115 108 124 137 144 152 155 160 171 169 157 139 153 147 132 23 1 2 7 14 16 11 4 359 355 356 358 0 1 2 4 3 5 7 358 328 287 274 259 247 222
217 193 196 281 269 185 141 139 134 129 121 110 140 131 127 121 136 152 166 171 175 175 181 179 175 177 196 218 331 340 348 360 6 5 3 356 350 350 355 358 358 359 359 1 4 6 8 11 9 356 319 260 245 237
204 211 193 167 252 152 153 117 79 98 109 109 109 135 131 119 106 143 153 170 188 194 184 181 192 190 230 284 303 315 329 341 345 351 352 352 354 354 354 355 357 359 2 3 5 9 12 13 14 16 10 347 311 253
205 217 208 171 153 170 155 123 117 101 112 105 121 134 107 106 120 152 155 172 192 178 176 179 190 217 255 284 303 308 320 326 332 336 338 341 345 349 352 356 359 1 4 6 10 14 19 22 24 23 22 19 9 341
Wind_Speed_850mb
50 45 43 42 40 39 37 36 33 34 38 41 42 41 41 39 32 23 12 12 12 16 56 47 27 16 20 13 7 10 16 6 9 6 5 4 3 5 6 7 7 5 6 7 5 6 14 8 2 5 17 48 46 47
52 46 46 41 41 41 38 37 33 32 35 40 41 41 40 36 34 26 24 16 29 28 54 75 74 74 70 49 38 14 10 10 9 5 5 5 6 6 2 6 8 5 3 4 11 12 12 14 23 56 54 38 50 60
53 46 45 40 40 41 38 35 35 30 33 40 41 42 41 35 32 26 32 30 28 23 43 18 13 4 41 32 22 21 14 19 13 13 5 4 7 4 4 6 6 8 10 7 7 9 11 34 61 36 51 48 60 67
55 49 45 42 37 40 40 35 35 31 31 39 42 42 40 36 34 35 30 25 20 15 11 19 36 23 7 12 29 24 28 19 15 10 7 4 4 8 6 10 11 18 8 10 12 22 30 39 30 62 60 60 75 69
66 57 47 42 35 38 41 36 38 26 33 38 40 40 38 33 33 29 7 10 8 8 8 30 35 21 38 21 14 38 46 45 16 7 6 5 8 6 7 6 7 10 12 9 16 27 39 33 48 53 58 59 77 63
66 65 58 43 35 35 37 37 36 27 33 36 37 37 34 28 28 19 4 10 9 8 11 9 25 21 35 34 12 14 37 41 27 10 8 9 12 7 5 6 12 26 42 42 24 45 51 54 46 70 55 76 63 57
71 72 67 52 37 35 37 35 34 28 32 34 34 36 29 21 24 10 0 2 7 11 8 11 14 16 29 26 12 1 20 20 16 10 11 9 11 12 5 7 9 55 45 52 49 31 33 36 58 74 68 47 49 50
68 65 63 57 58 42 36 34 33 29 30 32 33 32 23 23 21 2 2 6 11 13 7 5 9 19 20 14 11 3 11 20 15 9 6 6 6 9 8 19 37 47 49 47 30 29 42 51 74 54 46 39 46 47
70 58 55 54 44 35 31 33 27 27 30 29 26 14 2 5 3 2 14 7 10 7 4 3 6 8 25 16 12 7 6 4 7 4 6 6 3 7 14 34 48 59 29 41 30 33 36 58 52 47 41 46 42 47
64 53 47 46 32 29 30 25 23 25 25 18 5 4 5 6 6 14 2 3 4 4 4 6 7 7 11 8 8 7 4 3 5 8 9 5 3 26 44 55 56 34 25 35 28 35 50 60 46 47 42 43 34 33
64 66 61 47 34 28 28 25 21 20 16 4 6 8 7 7 6 5 4 5 5 3 8 11 14 10 12 6 6 7 5 4 4 2 3 1 3 38 80 78 51 23 25 28 20 38 46 46 49 46 46 38 35 33
71 67 51 43 40 31 29 24 16 13 7 4 1 6 9 7 5 3 5 6 5 5 7 9 13 15 15 11 7 6 5 3 4 5 4 6 11 70 82 75 58 19 16 25 25 37 47 43 48 41 40 39 35 32
54 50 45 43 41 32 27 19 13 8 3 5 4 3 2 6 3 4 3 5 5 6 9 15 9 10 9 10 8 4 6 4 15 6 6 5 51 78 81 68 27 14 24 26 24 33 48 46 54 46 41 39 32 33
45 44 44 41 30 29 26 15 12 7 7 6 5 2 7 5 5 4 6 6 8 12 28 36 15 8 6 4 2 5 6 6 4 9 9 17 64 83 84 69 54 23 28 20 23 33 48 50 54 50 50 45 41 36
42 39 40 30 29 27 20 15 12 15 10 6 5 5 7 2 4 2 1 4 14 23 31 18 4 5 5 5 4 6 4 8 7 5 9 52 73 76 77 85 51 14 29 22 21 26 43 49 50 44 42 36 36 35
42 35 40 29 29 25 19 17 18 12 7 5 8 2 5 6 7 5 6 10 21 25 21 4 5 5 6 7 8 11 7 6 7 11 51 60 71 78 77 81 56 11 22 23 20 15 28 40 39 38 38 40 39 42
44 40 36 32 30 25 24 25 15 8 7 6 8 12 9 6 5 1 3 12 20 12 3 2 6 0 3 6 7 5 4 10 38 48 53 56 68 74 79 79 69 36 22 16 20 11 20 34 35 47 47 40 45 49
44 43 31 38 34 31 32 13 9 8 10 14 6 7 11 10 7 4 8 13 10 6 6 5 6 10 7 5 7 8 29 35 41 46 52 57 54 62 70 68 62 42 30 20 17 13 16 28 39 45 44 39 42 47
43 35 37 41 41 21 12 14 8 6 13 6 9 15 12 17 15 9 11 7 7 9 11 9 8 5 3 4 12 29 36 40 49 56 50 41 44 54 54 57 58 46 32 27 19 14 15 21 31 35 40 38 43 47
35 38 45 47 34 9 8 7 11 7 7 6 12 26 14 12 11 15 13 17 12 10 12 6 5 4 2 9 21 35 36 36 40 44 42 46 47 51 49 50 50 48 31 28 24 12 17 18 23 24 29 34 37 41
47 47 41 44 23 6 7 8 11 9 7 8 29 22 15 16 8 8 11 13 14 8 7 7 8 5 10 18 18 37 29 30 29 31 37 45 46 47 44 43 45 48 46 36 31 20 13 13 17 17 16 25 31 36
47 42 38 37 9 9 7 11 6 7 9 11 24 18 12 9 9 6 9 16 8 8 9 9 6 7 12 14 25 33 25 23 24 29 29 33 43 48 48 45 42 46 45 40 31 25 12 4 10 11 15 15 16 21
47 35 24 11 8 16 6 14 9 9 5 8 17 11 6 8 13 15 10 6 7 10 11 7 5 4 7 12 23 30 27 18 23 29 41 41 36 35 37 36 36 38 42 36 32 23 12 8 6 3 8 11 8 10
41 16 11 13 12 10 8 10 11 9 8 5 7 8 7 13 23 6 5 10 16 14 11 7 3 0 4 11 24 36 30 24 19 24 27 37 40 40 38 35 31 33 39 36 29 25 14 4 13 13 10 4 3 6
11 14 10 9 13 9 8 7 6 4 6 7 7 5 6 14 5 4 8 18 32 17 14 10 6 3 7 10 20 32 32 26 20 21 29 28 34 39 42 42 36 36 37 35 33 31 22 10 4 15 13 16 8 3
6 13 13 18 10 10 10 9 11 10 6 7 7 15 9 7 5 6 8 36 35 26 20 16 10 9 7 10 19 31 36 32 18 19 26 29 34 36 40 44 52 45 42 38 39 39 32 23 10 4 12 27 25 18
6 10 11 14 9 7 5 5 11 8 8 8 8 6 6 6 8 7 20 28 29 26 23 17 11 7 3 7 13 21 28 30 25 22 26 25 28 32 38 41 46 46 40 35 37 37 33 32 25 18 22 15 35 35
11 7 8 11 11 11 4 6 7 8 7 12 20 6 13 12 6 18 19 25 24 31 20 14 12 15 10 5 8 16 21 25 22 16 8 20 28 37 39 43 46 46 44 39 34 33 35 35 33 26 20 29 28 40
8 9 14 4 9 8 12 11 10 10 12 22 9 5 9 8 21 26 37 36 32 28 22 17 18 21 17 8 5 15 22 28 34 36 37 41 44 46 47 48 49 49 52 48 43 39 35 28 30 32 27 26 21 26
8 21 12 10 8 9 8 10 13 18 16 25 25 30 27 33 40 35 35 34 28 22 23 20 21 17 10 3 5 13 20 26 34 39 43 42 45 44 43 45 48 49 50 52 51 47 43 31 19 23 28 30 27 25
8 24 16 5 5 10 16 12 25 33 26 20 34 47 37 31 36 32 33 28 21 19 20 20 19 15 11 5 3 9 14 19 26 32 37 36 35 36 38 40 42 44 46 49 50 49 48 45 38 27 18 22 32 37
17 19 17 8 1 32 39 11 11 14 16 19 17 25 31 17 11 16 28 23 21 17 20 21 17 10 5 7 9 10 16 20 26 33 39 38 34 34 34 35 36 37 39 41 42 44 46 45 43 41 33 24 17 27
22 20 26 22 17 13 14 16 10 10 11 8 11 26 15 11 9 12 24 18 16 22 23 19 14 10 9 10 12 14 19 25 32 36 38 36 33 31 30 31 33 33 34 35 36 37 39 43 43 41 37 33 26 13
Wind_Direction_850mb
259 264 269 274 283 291 300 306 313 320 326 335 334 336 335 336 337 331 330 278 306 274 288 277 270 251 241 213 227 313 345 356 335 20 314 339 328 325 345 294 282 230 177 225 240 244 279 162 108 261 294 298 309 307
257 261 267 273 280 286 296 305 308 310 325 333 331 331 329 333 331 321 311 293 293 281 271 290 284 273 272 270 258 245 238 342 283 30 354 350 330 341 46 291 328 304 203 265 195 228 234 204 268 297 291 303 312 304
253 257 263 269 276 281 291 301 300 305 325 330 328 326 325 331 327 315 307 309 314 297 307 315 341 264 311 295 248 215 242 210 225 238 224 269 272 187 262 254 281 274 279 245 304 280 280 302 308 307 305 310 321 301
241 253 258 264 270 278 286 298 299 302 322 325 324 323 323 330 328 320 307 304 283 270 289 291 324 345 305 342 215 234 246 200 229 217 229 240 265 216 249 249 255 252 304 249 260 280 310 300 303 321 302 308 318 305
234 238 247 259 266 275 283 293 292 305 314 320 320 321 322 332 327 331 2 341 289 238 291 295 331 359 6 355 281 245 243 225 214 200 199 229 241 246 244 252 245 208 218 260 285 294 294 289 312 329 310 310 311 308
233 237 236 241 258 271 281 289 292 299 308 315 317 316 318 329 322 353 198 40 31 293 320 312 317 337 11 4 337 265 232 218 216 203 220 230 241 206 260 258 261 296 305 295 284 295 292 301 314 323 310 310 311 309
234 235 237 231 246 271 281 286 286 296 306 313 313 308 313 311 306 325 51 126 332 6 285 290 304 307 336 328 344 12 208 207 224 235 226 235 236 196 254 259 306 302 306 307 306 306 301 311 319 317 310 309 314 311
236 235 237 241 238 251 276 278 283 295 309 312 306 302 308 287 281 181 153 334 274 243 270 294 281 317 347 315 314 242 208 213 225 235 239 214 202 217 260 258 273 287 301 307 317 313 311 316 315 320 325 331 323 323
233 236 237 240 223 246 260 269 282 303 312 309 304 316 339 158 127 12 328 48 146 213 282 275 297 301 333 318 289 272 202 256 244 234 232 179 204 234 257 295 300 296 305 300 309 323 317 327 326 334 338 333 331 328
228 230 235 228 222 243 251 265 284 303 307 314 294 199 173 193 198 314 120 198 181 230 238 254 266 280 305 290 290 307 223 261 266 223 170 213 263 287 328 341 327 329 302 316 317 334 337 333 342 343 338 339 338 326
222 229 227 232 223 237 245 262 278 302 314 295 205 187 183 243 231 212 190 207 173 249 236 246 242 279 287 245 277 261 272 251 272 240 250 215 28 345 338 335 334 303 318 316 343 358 348 334 339 342 341 347 340 339
228 232 225 226 215 232 246 254 276 291 300 293 207 149 163 186 201 194 193 151 207 231 233 231 278 269 284 259 271 302 284 249 275 157 235 43 336 338 336 340 344 318 342 318 353 2 359 347 353 357 351 347 350 349
232 235 220 216 208 235 243 244 265 261 267 152 135 157 168 175 77 204 43 328 326 227 251 266 284 276 279 255 279 315 265 310 324 2 42 46 334 337 338 330 338 328 349 322 357 4 7 8 3 6 3 4 10 12
223 213 211 204 218 229 233 229 232 212 171 170 157 342 186 203 211 173 178 204 291 266 299 300 270 241 272 288 252 283 339 28 61 23 8 336 333 333 338 348 0 359 327 333 349 3 9 16 17 11 12 12 16 23
214 200 201 205 217 222 212 208 202 179 169 166 189 215 211 151 151 134 92 5 357 334 324 321 345 310 313 290 7 326 350 39 38 24 322 327 330 334 338 343 355 7 339 331 339 4 11 15 18 16 22 25 35 43
190 198 200 205 208 198 187 179 164 164 169 194 225 236 223 108 13 57 69 344 341 337 328 38 47 47 357 350 27 11 23 24 340 332 319 324 331 336 337 350 353 354 328 330 317 349 15 22 23 24 32 39 49 54
186 199 199 196 182 172 173 157 163 179 193 215 233 219 244 255 231 269 347 334 333 332 337 33 59 229 294 40 24 35 35 321 312 314 321 328 332 336 344 353 359 15 9 354 349 340 13 24 30 30 31 37 48 55
189 196 188 181 164 164 161 164 167 185 228 224 210 167 158 129 136 62 355 332 326 3 14 65 57 42 38 30 333 341 320 317 318 319 321 326 336 348 351 355 6 25 36 22 32 30 20 22 32 35 34 43 53 55
190 185 176 158 163 143 155 181 181 222 225 202 196 157 131 116 97 56 354 350 64 106 98 62 70 64 34 3 316 329 328 326 326 329 336 344 351 346 354 356 15 36 35 37 28 19 26 29 36 41 38 46 55 53
177 177 155 164 157 132 145 165 188 223 216 174 142 146 137 123 110 55 52 73 102 62 60 55 75 91 342 338 337 336 334 332 333 330 340 359 0 353 354 1 16 29 47 47 42 36 22 30 35 45 49 51 55 56
163 153 164 171 175 162 175 184 191 208 188 151 143 134 128 131 96 57 45 40 63 48 87 98 102 24 346 337 324 345 350 351 353 349 346 344 359 1 359 2 12 25 33 42 50 46 24 31 32 41 61 62 63 64
149 154 157 165 178 191 229 204 202 179 176 145 160 146 143 147 142 96 95 53 74 89 114 123 64 20 7 1 357 3 2 8 13 12 9 7 6 8 9 5 1 8 19 22 35 41 43 26 21 48 61 77 72 64
147 153 147 166 177 194 233 182 195 188 143 178 146 118 133 132 146 136 80 90 121 138 138 117 49 15 26 1 358 3 9 9 8 11 6 9 9 11 14 12 6 2 359 13 18 37 57 166 208 254 27 59 81 88
147 151 176 185 190 196 192 191 187 179 174 138 137 114 143 130 155 93 125 155 163 152 165 162 138 61 45 24 17 10 8 12 19 23 2 358 5 9 18 20 13 0 358 357 0 10 42 161 197 230 265 268 25 38
161 189 187 198 195 187 191 156 168 139 171 162 143 128 156 144 106 136 170 169 165 170 167 160 163 123 51 29 18 15 14 10 15 12 357 6 5 8 17 17 23 13 354 347 353 357 6 26 217 236 232 232 250 222
194 197 181 191 183 187 192 160 177 172 157 153 181 134 133 99 112 197 200 173 172 181 172 164 140 98 73 40 15 12 13 14 11 1 5 3 2 8 10 9 4 11 8 353 342 337 337 341 316 212 231 230 237 240
210 219 202 208 205 212 188 141 144 129 169 173 154 116 109 135 190 183 162 170 178 173 169 171 184 176 101 60 30 20 15 13 11 9 13 13 15 13 11 14 4 0 1 353 341 333 322 310 310 264 244 230 220 230
230 212 196 183 205 220 170 162 141 168 187 162 132 136 152 165 162 163 171 165 165 154 160 170 174 169 150 121 33 9 6 14 15 14 22 32 22 18 14 12 11 7 7 5 353 341 326 307 298 292 266 238 229 222
220 202 187 236 206 215 212 197 188 175 162 160 108 115 124 102 142 154 151 150 151 161 164 166 150 169 171 151 19 358 1 5 12 17 14 10 8 11 8 5 4 4 6 6 8 359 348 329 293 282 275 260 238 209
231 190 186 214 192 205 211 198 168 155 141 148 129 115 108 124 137 144 152 155 160 171 169 157 139 153 147 132 23 1 2 7 14 16 11 4 359 355 356 358 0 1 2 4 3 5 7 358 328 287 274 259 247 222
217 193 196 281 269 185 141 139 134 129 121 110 140 131 127 121 136 152 166 171 175 175 181 179 175 177 196 218 331 340 348 360 6 5 3 356 350 350 355 358 358 359 359 1 4 6 8 11 9 356 319 260 245 237
204 211 193 167 252 152 153 117 79 98 109 109 109 135 131 119 106 143 153 170 188 194 184 181 192 190 230 284 303 315 329 341 345 351 352 352 354 354 354 355 357 359 2 3 5 9 12 13 14 16 10 347 311 253
205 217 208 171 153 170 155 123 117 101 112 105 121 134 107 106 120 152 155 172 192 178 176 179 190 217 255 284 303 308 320 326 332 336 338 341 345 349 352 356 359 1 4 6 10 14 19 22 24 23 22 19 9 341